FW6397 Weather Reports


Display with metric or nautical units.
time (UTC)temp
F
wind
direction
speed
MPH
gust
MPH
rain 1hr
in
rain 24hr
in
rain mn
in
humidity
%
barometer
mb
20210802172535 90 352 1.0 6.0 0.00 0.00 0.00 48 1013.7
20210802172017 90 352 2.0 8.0 0.00 0.00 0.00 48 1013.7
20210802171527 90 352 4.0 8.0 0.00 0.00 0.00 45 1013.8
20210802171041 90 352 2.0 5.0 0.00 0.00 0.00 47 1013.8
20210802170516 89 352 0.0 6.0 0.00 0.00 0.00 48 1013.9
20210802170045 89 352 3.0 6.0 0.00 0.00 0.00 46 1013.9
20210802165519 89 352 2.0 6.0 0.00 0.00 0.00 48 1013.9
20210802165021 88 352 1.0 6.0 0.00 0.00 0.00 50 1014.0
20210802164536 88 352 3.0 6.0 0.00 0.00 0.00 51 1014.1
20210802164011 88 352 1.0 5.0 0.00 0.00 0.00 52 1014.1
20210802163513 87 352 3.0 6.0 0.00 0.00 0.00 52 1014.1
20210802163015 87 352 2.0 6.0 0.00 0.00 0.00 53 1014.1
20210802162523 86 352 3.0 8.0 0.00 0.00 0.00 52 1014.2
20210802162009 86 352 3.0 9.0 0.00 0.00 0.00 55 1014.1
20210802161509 86 352 2.0 9.0 0.00 0.00 0.00 59 1014.2
20210802161008 86 352 2.0 6.0 0.00 0.00 0.00 57 1014.3
20210802160515 86 352 2.0 6.0 0.00 0.00 0.00 56 1014.2
20210802160011 85 352 3.0 6.0 0.00 0.00 0.00 57 1014.3
20210802155512 85 352 1.0 3.0 0.00 0.00 0.00 59 1014.3
20210802155011 84 352 1.0 4.0 0.00 0.00 0.00 61 1014.4
20210802154541 85 352 2.0 4.0 0.00 0.00 0.00 59 1014.4
20210802154008 84 352 0.0 4.0 0.00 0.00 0.00 62 1014.5
20210802153507 84 352 0.0 3.0 0.00 0.00 0.00 60 1014.5
20210802153024 83 352 0.0 4.0 0.00 0.00 0.00 64 1014.6
20210802152516 83 352 2.0 5.0 0.00 0.00 0.00 63 1014.6
20210802152007 82 352 2.0 6.0 0.00 0.00 0.00 63 1014.7
20210802151506 82 352 2.0 5.0 0.00 0.00 0.00 63 1014.7
20210802151005 82 352 2.0 4.0 0.00 0.00 0.00 66 1014.8
20210802150508 81 352 1.0 3.0 0.00 0.00 0.00 68 1014.7
20210802150039 81 352 1.0 3.0 0.00 0.00 0.00 69 1014.6
20210802145505 80 352 2.0 4.0 0.00 0.00 0.00 71 1014.7
20210802145003 80 352 2.0 4.0 0.00 0.00 0.00 70 1014.6
20210802144504 79 352 2.0 4.0 0.00 0.00 0.00 71 1014.6
20210802144014 79 352 2.0 4.0 0.00 0.00 0.00 72 1014.6
20210802143504 78 352 2.0 4.0 0.00 0.00 0.00 74 1014.6
20210802143004 78 352 1.0 4.0 0.00 0.00 0.00 73 1014.6
20210802142501 78 352 1.0 5.0 0.00 0.00 0.00 73 1014.6
20210802142003 78 352 2.0 5.0 0.00 0.00 0.00 74 1014.5
20210802141504 78 352 2.0 6.0 0.00 0.00 0.00 73 1014.5
20210802141004 78 352 2.0 6.0 0.00 0.00 0.00 73 1014.5
20210802140123 78 352 0.0 5.0 0.00 0.00 0.00 75 1014.2
20210802135600 77 352 1.0 5.0 0.00 0.00 0.00 77 1014.2
20210802135128 77 352 2.0 5.0 0.00 0.00 0.00 77 1014.2
20210802134715 77 352 2.0 5.0 0.00 0.00 0.00 75 1014.1
20210802134059 77 352 3.0 5.0 0.00 0.00 0.00 75 1014.1
20210802133601 77 352 1.0 4.0 0.00 0.00 0.00 75 1014.1
20210802133212 76 352 1.0 4.0 0.00 0.00 0.00 76 1014.1
20210802132558 76 352 1.0 4.0 0.00 0.00 0.00 77 1014.1
20210802132058 76 352 2.0 3.0 0.00 0.00 0.00 77 1014.1
20210802131832 76 352 0.0 3.0 0.00 0.00 0.00 78 1014.0
20210802131056 75 352 0.0 4.0 0.00 0.00 0.00 79 1014.0
20210802130556 75 352 2.0 4.0 0.00 0.00 0.00 79 1013.9
20210802130108 75 352 0.0 2.0 0.00 0.00 0.00 79 1013.8
20210802125555 75 352 0.0 3.0 0.00 0.00 0.00 79 1013.8
20210802125054 75 352 1.0 3.0 0.00 0.00 0.00 79 1013.7
20210802124628 75 352 2.0 3.0 0.00 0.00 0.00 77 1013.7
20210802124107 76 352 1.0 4.0 0.00 0.00 0.00 76 1013.7
20210802123607 76 352 2.0 4.0 0.00 0.00 0.00 76 1013.7
20210802123148 76 352 2.0 4.0 0.00 0.00 0.00 76 1013.7
20210802122550 76 352 2.0 4.0 0.00 0.00 0.00 76 1013.7
20210802122048 76 352 2.0 5.0 0.00 0.00 0.00 75 1013.6
20210802121747 76 352 2.0 5.0 0.00 0.00 0.00 75 1013.5
20210802121054 77 352 2.0 8.0 0.00 0.00 0.00 74 1013.6
20210802120614 77 352 3.0 8.0 0.00 0.00 0.00 74 1013.5
20210802120200 77 352 3.0 8.0 0.00 0.00 0.00 74 1013.5
20210802115553 77 352 2.0 5.0 0.00 0.00 0.00 75 1013.4
20210802115052 77 352 1.0 4.0 0.00 0.00 0.00 75 1013.3
20210802114636 77 352 2.0 4.0 0.00 0.00 0.00 73 1013.1
20210802114049 77 352 2.0 4.0 0.00 0.00 0.00 74 1013.0
20210802113555 77 352 1.0 5.0 0.00 0.00 0.00 73 1013.1
20210802113214 77 352 2.0 4.0 0.00 0.00 0.00 72 1013.0
20210802112551 77 352 2.0 4.0 0.00 0.00 0.00 72 1013.1
20210802112042 77 352 2.0 5.0 0.00 0.00 0.00 72 1013.1
20210802111606 77 352 3.0 5.0 0.00 0.00 0.00 72 1013.0
20210802111042 77 352 3.0 5.0 0.00 0.00 0.00 72 1013.0
20210802110541 77 352 2.0 5.0 0.00 0.00 0.00 71 1012.9
20210802110320 77 352 2.0 4.0 0.00 0.00 0.00 70 1012.9
20210802105540 77 352 1.0 5.0 0.00 0.00 0.00 71 1012.9
20210802105112 77 352 3.0 5.0 0.00 0.00 0.00 70 1012.9
20210802104710 77 352 2.0 3.0 0.00 0.00 0.00 69 1012.9
20210802104042 77 352 1.0 4.0 0.00 0.00 0.00 69 1013.0
20210802103543 78 352 1.0 4.0 0.00 0.00 0.00 68 1012.9
20210802103116 78 352 0.0 2.0 0.00 0.00 0.00 69 1012.7
20210802102537 79 352 0.0 2.0 0.00 0.00 0.00 66 1012.8
20210802102036 79 352 0.0 0.0 0.00 0.00 0.00 65 1012.9
20210802101640 79 352 0.0 0.0 0.00 0.00 0.00 65 1012.9
20210802101038 79 352 0.0 2.0 0.00 0.00 0.00 65 1012.7
20210802100545 79 352 0.0 2.0 0.00 0.00 0.00 66 1012.8
20210802100103 79 352 1.0 2.0 0.00 0.00 0.00 66 1012.7
20210802095539 80 352 0.0 2.0 0.00 0.00 0.00 63 1012.5
20210802095038 80 352 0.0 2.0 0.00 0.00 0.00 62 1012.5
20210802094619 79 352 0.0 2.0 0.00 0.00 0.00 64 1012.5
20210802094034 79 352 0.0 2.0 0.00 0.00 0.00 67 1012.5
20210802093534 79 352 1.0 2.0 0.00 0.00 0.00 64 1012.5
20210802093044 79 352 0.0 2.0 0.00 0.00 0.00 65 1012.4
20210802092542 78 352 0.0 2.0 0.00 0.00 0.00 66 1012.4
20210802092032 79 352 0.0 1.0 0.00 0.00 0.00 65 1012.5
20210802091556 80 352 0.0 2.0 0.00 0.00 0.00 63 1012.5
20210802091037 80 352 1.0 2.0 0.00 0.00 0.00 61 1012.5
20210802090529 81 352 0.0 2.0 0.00 0.00 0.00 60 1012.4
20210802090149 81 352 0.0 3.0 0.00 0.00 0.00 61 1012.4
20210802085535 81 352 1.0 3.0 0.00 0.00 0.00 61 1012.5
20210802085031 81 352 0.0 3.0 0.00 0.00 0.00 60 1012.4
20210802084549 81 352 1.0 3.0 0.00 0.00 0.00 59 1012.4
20210802084026 81 352 1.0 3.0 0.00 0.00 0.00 60 1012.5
20210802083526 82 352 1.0 2.0 0.00 0.00 0.00 58 1012.4
20210802083041 81 352 0.0 3.0 0.00 0.00 0.00 59 1012.5
20210802082526 82 352 1.0 3.0 0.00 0.00 0.00 57 1012.5
20210802082022 82 352 0.0 4.0 0.00 0.00 0.00 56 1012.5
20210802081556 83 352 1.0 4.0 0.00 0.00 0.00 54 1012.5
20210802081035 84 352 1.0 5.0 0.00 0.00 0.00 53 1012.4
20210802080519 85 352 2.0 5.0 0.00 0.00 0.00 49 1012.4
20210802080033 85 352 3.0 5.0 0.00 0.00 0.00 49 1012.4
20210802075519 85 352 3.0 6.0 0.00 0.00 0.00 49 1012.4
20210802075018 85 352 4.0 6.0 0.00 0.00 0.00 49 1012.4
20210802074546 85 352 4.0 6.0 0.00 0.00 0.00 49 1012.4
20210802074027 85 352 3.0 6.0 0.00 0.00 0.00 49 1012.4
20210802073517 86 352 3.0 6.0 0.00 0.00 0.00 48 1012.4
20210802073041 86 352 3.0 6.0 0.00 0.00 0.00 48 1012.6
20210802072538 85 352 1.0 4.0 0.00 0.00 0.00 49 1012.6
20210802072026 84 352 0.0 4.0 0.00 0.00 0.00 52 1012.6
20210802071532 86 352 1.0 5.0 0.00 0.00 0.00 48 1012.6
20210802071014 87 352 3.0 6.0 0.00 0.00 0.00 46 1012.6
20210802070513 87 352 3.0 6.0 0.00 0.00 0.00 46 1012.6
20210802070013 87 352 4.0 5.0 0.00 0.00 0.00 46 1012.6
20210802065513 87 352 3.0 5.0 0.00 0.00 0.00 46 1012.6
20210802065012 87 352 3.0 5.0 0.00 0.00 0.00 46 1012.6
20210802064535 87 352 3.0 5.0 0.00 0.00 0.00 46 1012.7
20210802064016 88 352 3.0 5.0 0.00 0.00 0.00 45 1012.7
20210802063509 88 352 3.0 5.0 0.00 0.00 0.00 44 1012.8
20210802063043 88 352 3.0 5.0 0.00 0.00 0.00 45 1012.7
20210802062514 88 352 3.0 5.0 0.00 0.00 0.00 45 1012.7
20210802062011 88 352 3.0 5.0 0.00 0.00 0.00 44 1012.7
20210802061522 88 352 3.0 8.0 0.00 0.00 0.00 44 1012.7
20210802061009 88 352 3.0 6.0 0.00 0.00 0.00 44 1012.7
20210802060506 88 352 3.0 8.0 0.00 0.00 0.00 45 1012.7
20210802060007 88 352 3.0 8.0 0.00 0.00 0.00 45 1012.7
20210802055505 88 352 4.0 6.0 0.00 0.00 0.00 44 1012.8
20210802055019 88 352 3.0 6.0 0.00 0.00 0.00 44 1012.6
20210802054506 89 352 3.0 9.0 0.00 0.00 0.00 43 1012.6
20210802053513 88 352 3.0 8.0 0.00 0.00 0.00 43 1012.7
20210802053005 89 352 5.0 8.0 0.00 0.00 0.00 43 1012.6
20210802052508 88 352 5.0 8.0 0.00 0.00 0.00 43 1012.6
20210802052004 88 352 4.0 8.0 0.00 0.00 0.00 43 1012.6
20210802051525 88 352 3.0 5.0 0.00 0.00 0.00 43 1012.7
20210802051003 88 352 3.0 8.0 0.00 0.00 0.00 43 1012.7
20210802050504 88 352 3.0 8.0 0.00 0.00 0.00 43 1012.7
20210802050004 88 352 4.0 6.0 0.00 0.00 0.00 43 1012.6
20210802045508 88 352 3.0 5.0 0.00 0.00 0.00 43 1012.7
20210802045002 88 352 3.0 5.0 0.00 0.00 0.00 43 1012.8
20210802044508 88 352 3.0 5.0 0.00 0.00 0.00 43 1012.7
20210802044015 88 352 3.0 5.0 0.00 0.00 0.00 43 1012.6
20210802043510 88 352 3.0 6.0 0.00 0.00 0.00 43 1012.6
20210802043011 89 352 3.0 6.0 0.00 0.00 0.00 42 1012.6
20210802042502 89 352 4.0 6.0 0.00 0.00 0.00 42 1012.5
20210802042001 89 352 3.0 6.0 0.00 0.00 0.00 42 1012.4
20210802041504 89 352 3.0 8.0 0.00 0.00 0.00 42 1012.5
20210802041001 89 352 4.0 8.0 0.00 0.00 0.00 42 1012.5
20210802040251 88 352 3.0 5.0 0.00 0.00 0.00 43 1012.5
20210802035601 88 352 3.0 5.0 0.00 0.00 0.00 43 1012.5
20210802035118 88 352 2.0 5.0 0.00 0.00 0.00 43 1012.5
20210802034704 89 352 2.0 5.0 0.00 0.00 0.00 43 1012.4
20210802033559 89 352 2.0 5.0 0.00 0.00 0.00 43 1012.3
20210802033212 89 352 2.0 5.0 0.00 0.00 0.00 43 1012.2
20210802032612 89 352 2.0 5.0 0.00 0.00 0.00 43 1012.2
20210802032059 89 352 2.0 5.0 0.00 0.00 0.00 43 1012.1
20210802031734 89 352 3.0 6.0 0.00 0.00 0.00 42 1012.0
20210802031102 90 352 2.0 6.0 0.00 0.00 0.00 41 1012.0
20210802030600 90 352 3.0 6.0 0.00 0.00 0.00 41 1011.9
20210802030148 90 352 3.0 5.0 0.00 0.00 0.00 41 1011.9
20210802025558 90 352 3.0 5.0 0.00 0.00 0.00 41 1011.8
20210802025058 90 352 3.0 5.0 0.00 0.00 0.00 41 1011.8
20210802024743 90 352 1.0 4.0 0.00 0.00 0.00 41 1011.9
20210802024058 90 352 2.0 5.0 0.00 0.00 0.00 41 1011.8
20210802023604 90 352 2.0 5.0 0.00 0.00 0.00 41 1011.7
20210802023203 90 352 2.0 5.0 0.00 0.00 0.00 41 1011.7
20210802022556 90 352 2.0 6.0 0.00 0.00 0.00 41 1011.6
20210802022152 91 352 1.0 6.0 0.00 0.00 0.00 40 1011.4
20210802021816 92 352 2.0 8.0 0.00 0.00 0.00 38 1011.5
20210802021056 92 352 4.0 8.0 0.00 0.00 0.00 37 1011.4
20210802020557 92 352 4.0 10.0 0.00 0.00 0.00 37 1011.3
20210802015554 93 352 3.0 9.0 0.00 0.00 0.00 36 1011.2
20210802015055 93 352 2.0 6.0 0.00 0.00 0.00 37 1011.1
20210802014716 93 352 3.0 8.0 0.00 0.00 0.00 37 1011.2
20210802014101 93 352 4.0 8.0 0.00 0.00 0.00 37 1011.1
20210802013619 93 352 3.0 8.0 0.00 0.00 0.00 37 1011.0
20210802013212 93 352 3.0 10.0 0.00 0.00 0.00 37 1011.0
20210802012553 93 352 4.0 10.0 0.00 0.00 0.00 37 1011.0
20210802012053 94 352 4.0 12.0 0.00 0.00 0.00 36 1010.9
20210802011748 94 352 5.0 13.0 0.00 0.00 0.00 36 1010.9
20210802011110 94 352 8.0 13.0 0.00 0.00 0.00 35 1011.0
20210802010554 94 352 6.0 11.0 0.00 0.00 0.00 35 1011.0
20210802010142 95 352 5.0 10.0 0.00 0.00 0.00 36 1010.9
20210802005552 95 352 3.0 8.0 0.00 0.00 0.00 35 1010.9
20210802005053 95 352 3.0 10.0 0.00 0.00 0.00 35 1010.8
20210802004658 95 352 6.0 10.0 0.00 0.00 0.00 35 1010.8
20210802004055 95 352 5.0 9.0 0.00 0.00 0.00 34 1010.9
20210802003609 95 352 4.0 10.0 0.00 0.00 0.00 35 1010.8
20210802003127 95 352 4.0 10.0 0.00 0.00 0.00 36 1010.9
20210802002552 96 352 3.0 8.0 0.00 0.00 0.00 36 1010.9
20210802002050 95 352 3.0 8.0 0.00 0.00 0.00 36 1010.8
20210802001647 95 352 4.0 9.0 0.00 0.00 0.00 35 1010.8
20210802001106 95 352 5.0 11.0 0.00 0.00 0.00 36 1010.9
20210802000550 95 352 6.0 11.0 0.00 0.00 0.00 36 1011.0
20210802000148 95 352 3.0 9.0 0.00 0.00 0.00 36 1010.9
20210801235605 95 352 4.0 10.0 0.00 0.00 0.00 37 1010.9
20210801235049 95 352 5.0 11.0 0.00 0.00 0.00 36 1011.0
20210801234702 96 352 4.0 11.0 0.00 0.00 0.00 35 1011.1
20210801234049 96 352 4.0 10.0 0.00 0.00 0.00 36 1011.0
20210801233548 96 352 5.0 11.0 0.00 0.00 0.00 35 1011.1
20210801233151 96 352 4.0 11.0 0.00 0.00 0.00 35 1011.2
20210801232546 96 352 2.0 13.0 0.00 0.00 0.00 36 1011.2
20210801232045 96 352 5.0 13.0 0.00 0.00 0.00 35 1011.2
20210801231632 96 352 7.0 12.0 0.00 0.00 0.00 36 1011.3
20210801231045 96 352 4.0 12.0 0.00 0.00 0.00 35 1011.3
20210801230128 96 352 3.0 13.0 0.00 0.00 0.00 37 1011.5
20210801225543 96 352 6.0 13.0 0.00 0.00 0.00 37 1011.6
20210801225046 96 347 3.0 12.0 0.00 0.00 0.00 36 1011.5
20210801224618 96 352 7.0 12.0 0.00 0.00 0.00 37 1011.7
20210801224054 95 352 5.0 11.0 0.00 0.00 0.00 37 1011.8
20210801223547 96 352 6.0 12.0 0.00 0.00 0.00 37 1011.8
20210801223218 96 352 6.0 11.0 0.00 0.00 0.00 36 1011.9
20210801222541 96 352 5.0 9.0 0.00 0.00 0.00 37 1011.9
20210801222040 95 352 4.0 9.0 0.00 0.00 0.00 38 1011.9
20210801221615 96 352 5.0 11.0 0.00 0.00 0.00 38 1012.0
20210801221038 96 352 6.0 11.0 0.00 0.00 0.00 37 1012.1
20210801220539 95 352 2.0 9.0 0.00 0.00 0.00 40 1012.0
20210801220049 96 352 4.0 12.0 0.00 0.00 0.00 38 1012.2
20210801215540 95 352 4.0 11.0 0.00 0.00 0.00 39 1012.1
20210801214617 96 352 5.0 10.0 0.00 0.00 0.00 39 1012.2
20210801214056 96 352 4.0 13.0 0.00 0.00 0.00 37 1012.3
20210801213535 96 352 5.0 13.0 0.00 0.00 0.00 37 1012.4
20210801213124 96 352 5.0 10.0 0.00 0.00 0.00 37 1012.4
20210801212537 96 352 4.0 10.0 0.00 0.00 0.00 38 1012.4
20210801212032 96 352 3.0 8.0 0.00 0.00 0.00 38 1012.5
20210801211556 95 352 2.0 8.0 0.00 0.00 0.00 37 1012.6
20210801211033 95 352 3.0 12.0 0.00 0.00 0.00 36 1012.7
20210801210531 95 352 6.0 12.0 0.00 0.00 0.00 37 1012.7
20210801210105 96 352 6.0 14.0 0.00 0.00 0.00 37 1012.7
20210801205530 95 352 4.0 14.0 0.00 0.00 0.00 39 1012.7
20210801205029 95 352 6.0 10.0 0.00 0.00 0.00 38 1012.7
20210801204541 94 352 3.0 12.0 0.00 0.00 0.00 40 1012.7
20210801204027 95 352 7.0 12.0 0.00 0.00 0.00 38 1012.9
20210801203533 94 352 3.0 9.0 0.00 0.00 0.00 38 1012.9
20210801203033 95 352 5.0 10.0 0.00 0.00 0.00 39 1012.9
20210801202526 95 352 5.0 9.0 0.00 0.00 0.00 39 1012.9
20210801202033 95 352 4.0 9.0 0.00 0.00 0.00 38 1013.0
20210801201530 94 352 3.0 10.0 0.00 0.00 0.00 43 1013.1
20210801201025 94 352 3.0 10.0 0.00 0.00 0.00 39 1013.1
20210801200533 94 352 3.0 9.0 0.00 0.00 0.00 39 1013.2
20210801200047 93 352 3.0 10.0 0.00 0.00 0.00 41 1013.3
20210801195524 94 352 4.0 10.0 0.00 0.00 0.00 40 1013.3
20210801195024 94 352 4.0 10.0 0.00 0.00 0.00 41 1013.4
20210801194640 94 352 1.0 8.0 0.00 0.00 0.00 41 1013.6
20210801194023 94 352 4.0 8.0 0.00 0.00 0.00 42 1013.6
20210801193528 92 352 1.0 8.0 0.00 0.00 0.00 46 1013.6
20210801193103 92 352 3.0 8.0 0.00 0.00 0.00 43 1013.7
20210801192522 92 352 2.0 8.0 0.00 0.00 0.00 45 1013.7
20210801192022 93 352 1.0 9.0 0.00 0.00 0.00 41 1013.8
20210801191553 93 352 4.0 9.0 0.00 0.00 0.00 41 1013.7
20210801191020 92 352 3.0 8.0 0.00 0.00 0.00 44 1013.8
20210801190520 92 352 4.0 8.0 0.00 0.00 0.00 42 1014.0
20210801190046 93 347 2.0 8.0 0.00 0.00 0.00 43 1013.9
20210801185519 93 352 2.0 5.0 0.00 0.00 0.00 42 1014.0
20210801185025 92 352 1.0 9.0 0.00 0.00 0.00 45 1014.1
20210801184526 92 352 2.0 9.0 0.00 0.00 0.00 43 1014.2
20210801184022 93 352 2.0 4.0 0.00 0.00 0.00 43 1014.3
20210801183529 93 352 1.0 5.0 0.00 0.00 0.00 44 1014.3
20210801183046 92 352 1.0 9.0 0.00 0.00 0.00 44 1014.4
20210801182517 92 352 3.0 9.0 0.00 0.00 0.00 43 1014.5
20210801182021 92 352 2.0 5.0 0.00 0.00 0.00 46 1014.6
20210801181544 92 352 1.0 3.0 0.00 0.00 0.00 43 1014.5
20210801181023 91 352 0.0 4.0 0.00 0.00 0.00 46 1014.6
20210801180522 90 352 1.0 5.0 0.00 0.00 0.00 46 1014.6
20210801180024 91 352 0.0 6.0 0.00 0.00 0.00 46 1014.7
20210801175517 91 352 3.0 6.0 0.00 0.00 0.00 44 1014.8
20210801175025 91 352 1.0 8.0 0.00 0.00 0.00 45 1014.8
20210801174520 91 352 3.0 8.0 0.00 0.00 0.00 44 1014.8
20210801174014 91 352 3.0 8.0 0.00 0.00 0.00 44 1014.8
20210801173513 90 352 2.0 6.0 0.00 0.00 0.00 46 1015.0
20210801173030 90 352 1.0 6.0 0.00 0.00 0.00 49 1014.9